[[{"header":{"parameterUnit":"m.s-1","parameterCategory":1,"la1":30.2991,"la2":30.254,"lo1":-89.0895,"lo2":-89.0444,"dy":0.0017,"dx":0.0017,"nx":28,"ny":28,"refTime":"2024-04-15T03:00:00:Z","depth":0,"parameterNumber":2,"parameterNumberName":"U-component_of_WINDS"},"data":[0,0,0,0,0,0,0,0,0,0,0,0,0,0,0,0,0,0,0,0,0,0,0,0,0,0,0,0,0,0,0,0,0,0,0,0,0,0,0,0,0,0,0,0,0,0,0,0,0,0,0,0,0,0,0,0,0,0,-1.6612,-1.6614,0,-1.6747,-1.6749,-1.675,-1.6762,-1.6761,-1.6759,-1.6758,-1.6898,-1.6903,-1.6908,0,0,0,0,0,0,0,0,0,0,0,0,0,-1.6369,-1.6373,-1.6612,-1.6614,-1.6615,-1.6747,-1.6749,-1.6751,-1.6762,-1.6761,-1.6759,-1.6757,-1.6896,-1.6902,-1.6909,0,0,0,0,0,0,0,0,0,0,0,0,0,-1.6486,-1.6375,-1.6612,-1.6637,-1.6641,-1.6746,-1.6749,-1.6751,-1.6763,-1.6761,-1.6758,-1.6756,-1.6894,-1.6902,-1.6909,-1.7,0,0,-1.6933,-1.6936,0,0,0,0,0,0,0,0,-1.648,-1.6495,-1.6632,-1.6635,-1.664,-1.6735,-1.6714,-1.6835,-1.6763,-1.6716,-1.6758,-1.6755,-1.6846,-1.6857,-1.6888,-1.7006,-1.7012,-1.6933,-1.6938,-1.6941,-1.6943,0,0,0,0,0,0,0,-1.6471,-1.6489,-1.6665,-1.6634,-1.6639,-1.6643,-1.6657,-1.6737,-1.6792,-1.672,-1.6722,-1.6737,-1.6848,-1.688,-1.6891,-1.7014,-1.6933,-1.694,-1.6945,-1.6948,-1.7218,-1.722,0,0,0,0,0,0,-1.6458,-1.6483,-1.6661,-1.667,-1.6553,-1.6649,-1.6665,-1.6707,-1.6791,-1.6802,-1.6739,-1.6737,-1.6868,-1.6882,-1.6896,-1.7009,-1.6941,-1.6948,-1.6953,-1.7215,-1.7218,-1.7221,0,0,0,0,0,0,-1.6453,-1.6474,-1.6656,-1.6577,-1.66,-1.6656,-1.6703,-1.6711,-1.6743,-1.6805,-1.6815,-1.6762,-1.6867,-1.6885,-1.6975,-1.7014,-1.6952,-1.6959,-1.7212,-1.7216,-1.722,-1.7235,0,0,0,0,0,0,-1.6446,-1.6472,-1.6506,-1.6577,-1.6604,-1.6731,-1.6705,-1.6715,-1.6756,-1.6755,-1.6829,-1.6839,-1.6867,-1.6963,-1.6982,-1.7024,-1.6965,-1.7209,-1.7214,-1.7218,-1.7231,-1.7239,-1.7246,0,0,0,0,0,-1.6437,-1.6504,-1.6507,-1.6529,-1.6647,-1.6733,-1.6749,-1.6778,-1.6759,-1.6795,-1.6835,-1.6837,-1.7007,-1.6972,-1.6994,-1.7038,-1.7206,-1.7212,-1.7218,-1.7228,-1.7238,-1.7246,0,0,0,0,0,0,-1.6436,-1.6514,-1.6518,-1.661,-1.6665,-1.6735,-1.678,-1.6787,-1.6849,-1.6845,-1.688,-1.6897,-1.6986,-1.7021,-1.6981,-1.7132,-1.7105,-1.7115,-1.7105,-1.7115,-1.7122,-1.7112,-1.6971,0,0,0,0,0,-1.6447,-1.6509,-1.6574,-1.6649,-1.6676,-1.6724,-1.6762,-1.678,-1.6839,-1.6862,-1.6908,-1.6966,-1.7033,-1.7075,-1.714,-1.7237,-1.7254,-1.7278,-1.7285,-1.7291,-1.73,-1.7356,-1.7368,-1.724,-1.724,-1.724,0,0,-1.6469,-1.6519,-1.6556,-1.665,-1.6695,-1.676,-1.6743,-1.6812,-1.6861,-1.6873,-1.696,-1.6997,-1.7063,-1.7157,-1.7201,-1.7189,-1.7339,-1.7298,-1.7302,-1.7308,-1.7363,-1.7376,-1.7386,-1.7244,-1.7244,-1.7243,0,0,-1.6543,-1.6587,-1.6655,-1.6701,-1.6768,-1.68,-1.6816,-1.6886,-1.6911,-1.6999,-1.701,-1.707,-1.7183,-1.7231,-1.727,-1.7365,-1.737,-1.7385,-1.7423,-1.7478,-1.7488,-1.7497,-1.7533,-1.7545,-1.7394,-1.7394,-1.7394,0,-1.6563,-1.666,-1.669,-1.6759,-1.6801,-1.6815,-1.6886,-1.6929,-1.7015,-1.7044,-1.703,-1.7174,-1.722,-1.7326,-1.735,-1.738,-1.7402,-1.7377,-1.7484,-1.7493,-1.7502,-1.7537,-1.755,-1.7395,-1.7395,-1.7395,-1.7395,0,-1.6682,-1.6749,-1.6797,-1.6879,-1.6927,-1.6997,-1.7039,-1.7084,-1.7099,-1.7132,-1.7224,-1.7279,-1.7356,-1.7383,-1.7398,-1.7493,-1.7484,-1.7476,-1.745,-1.7515,-1.7548,-1.7562,-1.7397,-1.7397,-1.7396,-1.7396,0,0,-1.6758,-1.6857,-1.6875,-1.6913,-1.699,-1.7044,-1.7116,-1.7191,-1.723,-1.7289,-1.7351,-1.7448,-1.7442,-1.7487,-1.7508,-1.7555,-1.763,-1.7542,-1.7545,-1.7558,-1.7741,-1.7746,-1.7761,-1.7634,-1.7637,-1.7639,-1.7736,0,-1.6842,-1.6969,-1.6999,-1.7108,-1.7173,-1.7188,-1.7251,-1.7306,-1.734,-1.7401,-1.7438,-1.7507,-1.7493,-1.7521,-1.7569,-1.7611,-1.7667,-1.7604,-1.7694,-1.7697,-1.7677,-1.7778,-1.7784,-1.7873,-1.7749,-1.7751,-1.7752,0,-1.6956,-1.7018,-1.7134,-1.7205,-1.7233,-1.7289,-1.7362,-1.7419,-1.7483,-1.7504,-1.7555,-1.7572,-1.7649,-1.7619,-1.7728,-1.7684,-1.7723,-1.7749,-1.7754,-1.7764,-1.7729,-1.7792,-1.7901,-1.7915,-1.7773,-1.7771,-1.777,0,-1.7002,-1.7115,-1.7199,-1.7232,-1.7316,-1.7355,-1.7393,-1.7454,-1.7498,-1.7563,-1.7592,-1.7665,-1.7704,-1.7761,-1.7798,-1.7772,-1.7904,-1.7876,-1.7925,-1.7925,-1.7952,-1.795,-1.8071,-1.7976,-1.7976,-1.7975,-1.7975,0,-1.7093,-1.7164,-1.7221,-1.7273,-1.7354,-1.7389,-1.7468,-1.7506,-1.7561,-1.7622,-1.764,-1.7697,-1.7742,-1.7806,-1.7835,-1.7922,-1.7939,-1.796,-1.7967,-1.7959,-1.7956,-1.7985,-1.798,-1.7979,-1.7978,-1.7977,-1.7977,0,-1.7158,-1.7199,-1.7293,-1.7365,-1.7386,-1.7442,-1.7505,-1.7557,-1.7592,-1.7669,-1.769,-1.7745,-1.7822,-1.7864,-1.7959,-1.7979,-1.8076,-1.808,-1.8055,-1.8058,-1.8105,-1.8101,-1.8249,-1.8271,-1.816,-1.8161,-1.8162,0,-1.7214,-1.7269,-1.7348,-1.739,-1.7428,-1.7495,-1.754,-1.7578,-1.7625,-1.7703,-1.7747,-1.7824,-1.7888,-1.801,-1.806,-1.8134,-1.814,-1.8187,-1.8151,-1.8142,-1.8142,-1.8139,-1.8146,-1.8193,-1.8194,-1.8195,-1.8195,0,-1.7309,-1.7328,-1.7392,-1.7465,-1.7518,-1.7577,-1.7636,-1.7669,-1.7717,-1.777,-1.7848,-1.7898,-1.7996,-1.8074,-1.8152,-1.8192,-1.8203,-1.8206,-1.8222,-1.8215,-1.8198,-1.821,-1.8073,-1.8203,-1.8202,-1.8201,-1.8201,-1.8201,-1.7373,-1.7423,-1.7487,-1.7559,-1.7607,-1.7662,-1.7715,-1.7758,-1.7823,-1.7906,-1.7925,-1.8008,-1.8073,-1.818,-1.8222,-1.8289,-1.828,-1.8302,-1.8308,-1.8313,-1.8316,-1.8187,-1.8303,-1.8303,-1.8303,-1.8303,-1.8302,0,-1.7471,-1.7513,-1.7579,-1.766,-1.7718,-1.7722,-1.7788,-1.7836,-1.7909,-1.7968,-1.8031,-1.8123,-1.8198,-1.8255,-1.8332,-1.8375,-1.8382,-1.8395,-1.8392,-1.8402,-1.8318,-1.8298,-1.8388,-1.8388,-1.8388,-1.8388,-1.8388,-1.8388,-1.7528,-1.7614,-1.764,-1.7752,-1.7794,-1.7875,-1.7913,-1.7964,-1.8012,-1.8113,-1.8176,-1.8212,-1.8272,-1.8354,-1.8425,-1.844,-1.8468,-1.848,-1.8496,-1.8416,-1.8407,-1.8399,-1.838,-1.8486,-1.8486,-1.8574,-1.8575,-1.8575]},{"header":{"parameterUnit":"m.s-1","parameterCategory":1,"la1":30.2991,"la2":30.254,"lo1":-89.0895,"lo2":-89.0444,"dy":0.0017,"dx":0.0017,"nx":28,"ny":28,"refTime":"2024-04-15T03:00:00:Z","depth":0,"parameterNumber":3,"parameterNumberName":"V-component_of_WINDS"},"data":[0,0,0,0,0,0,0,0,0,0,0,0,0,0,0,0,0,0,0,0,0,0,0,0,0,0,0,0,0,0,0,0,0,0,0,0,0,0,0,0,0,0,0,0,0,0,0,0,0,0,0,0,0,0,0,0,0,0,3.9996,3.9996,0,3.9998,3.9998,3.9998,3.9963,3.9962,3.9961,3.996,3.9963,3.9964,3.9965,0,0,0,0,0,0,0,0,0,0,0,0,0,3.9964,3.9965,3.9996,3.9996,3.9996,3.9998,3.9998,3.9998,3.9963,3.9962,3.996,3.9959,3.9963,3.9964,3.9965,0,0,0,0,0,0,0,0,0,0,0,0,0,3.9973,3.9965,3.9996,3.9979,3.9977,3.9998,3.9998,3.9998,3.9963,3.9962,3.996,3.9959,3.9962,3.9964,3.9965,4.0003,0,0,3.997,3.9971,0,0,0,0,0,0,0,0,3.9973,3.9974,3.9981,3.998,3.9978,3.9979,3.9988,4.0,3.9963,3.9969,3.996,3.9958,3.997,3.997,3.9974,4.0004,4.0004,3.997,3.9971,3.9972,3.9972,0,0,0,0,0,0,0,3.9972,3.9974,3.9997,3.9982,3.998,3.9971,3.9971,3.999,3.9977,3.9968,3.9965,3.9966,3.9968,3.9973,3.9974,4.0004,3.997,3.9971,3.9972,3.9973,4.0065,4.0067,0,0,0,0,0,0,3.9973,3.9974,3.9997,3.9997,3.9972,3.9973,3.9973,3.998,3.9977,3.9975,3.9967,3.9964,3.9971,3.9972,3.9974,4.0018,3.9972,3.9973,3.9974,4.0064,4.0065,4.0067,0,0,0,0,0,0,3.9973,3.9976,3.9997,3.9985,3.9987,3.9975,3.9984,3.9981,3.9985,3.9976,3.9974,3.9974,3.997,3.9972,3.9996,4.0018,3.9974,3.9975,4.0062,4.0064,4.0066,4.0107,0,0,0,0,0,0,3.9972,3.9976,3.999,3.9985,3.9988,4.0019,3.9985,3.9982,3.9987,3.9984,3.9982,3.998,3.9969,3.9994,3.9998,4.0019,3.9976,4.006,4.0063,4.0066,4.0104,4.0111,4.0116,0,0,0,0,0,3.9971,4.0002,3.9991,3.9994,4.0005,4.002,4.0022,4.0007,3.9989,4.0003,3.9998,3.998,4.0015,3.9997,4.0001,4.0023,4.0058,4.0062,4.0065,4.0101,4.0109,4.0116,0,0,0,0,0,0,4.0009,4.0001,3.9988,4.0018,4.002,4.0014,4.0031,4.0017,4.0024,4.002,4.0003,4.0003,4.0031,4.0029,4.0009,4.006,4.0033,4.0038,4.0059,4.0067,4.0073,4.0073,3.9977,0,0,0,0,0,4.0021,4.0034,4.0026,4.0053,4.0055,4.0043,4.0049,4.0038,4.004,4.0041,4.0037,4.004,4.0051,4.0059,4.0069,4.0104,4.0103,4.0121,4.0127,4.0132,4.0136,4.0154,4.0162,4.0079,4.0079,4.0079,0,0,4.0046,4.0043,4.0052,4.0061,4.0061,4.0075,4.0044,4.006,4.0071,4.0043,4.0066,4.0064,4.0066,4.0095,4.0108,4.0095,4.0159,4.0137,4.0141,4.0142,4.0159,4.0167,4.0174,4.0081,4.0081,4.008,0,0,4.0098,4.0097,4.0119,4.012,4.0121,4.0113,4.0118,4.0115,4.0112,4.0134,4.0114,4.0127,4.0147,4.0149,4.0153,4.0206,4.019,4.021,4.0243,4.0261,4.0268,4.0274,4.0293,4.03,4.0214,4.0214,4.0215,0,4.0129,4.0149,4.0133,4.015,4.0155,4.013,4.0153,4.0155,4.0159,4.0163,4.0148,4.0173,4.0173,4.0203,4.0216,4.022,4.0226,4.021,4.0268,4.0274,4.0279,4.0297,4.0304,4.0217,4.0217,4.0216,4.0216,0,4.0187,4.0201,4.0219,4.0223,4.023,4.025,4.0238,4.0246,4.0235,4.0229,4.0253,4.0251,4.0261,4.0267,4.0257,4.0296,4.0288,4.0271,4.0244,4.0289,4.0306,4.0313,4.022,4.0219,4.0219,4.0218,0,0,4.0263,4.0258,4.0265,4.0266,4.0265,4.0276,4.0296,4.0304,4.0312,4.0316,4.0332,4.035,4.0334,4.0339,4.0328,4.0344,4.0387,4.0325,4.0325,4.0337,4.0431,4.0444,4.0452,4.0377,4.0378,4.0379,4.0431,0,4.0313,4.0345,4.0332,4.0365,4.0378,4.0355,4.0372,4.0374,4.0369,4.038,4.0375,4.0388,4.0366,4.0369,4.0383,4.0379,4.0406,4.0375,4.0392,4.0393,4.0392,4.046,4.0474,4.0523,4.0437,4.0438,4.0439,0,4.0376,4.0382,4.0417,4.0414,4.0419,4.0434,4.0441,4.0452,4.0453,4.0449,4.0454,4.044,4.046,4.0433,4.0461,4.044,4.0446,4.0445,4.0447,4.0448,4.0418,4.0463,4.0538,4.0545,4.0449,4.0448,4.0448,0,4.0428,4.0445,4.0468,4.047,4.0467,4.0478,4.0477,4.0477,4.0484,4.049,4.0494,4.0504,4.0509,4.0516,4.0506,4.0487,4.0534,4.0507,4.0532,4.0532,4.0542,4.0542,4.0619,4.0547,4.0547,4.0547,4.0546,0,4.0486,4.0508,4.0491,4.0505,4.0529,4.0514,4.0539,4.0536,4.0536,4.055,4.0531,4.0544,4.0529,4.0542,4.0534,4.0557,4.056,4.0557,4.0555,4.0559,4.0559,4.0562,4.0559,4.0548,4.0548,4.0548,4.0547,0,4.0548,4.0537,4.0561,4.0555,4.0555,4.0573,4.0569,4.0582,4.0576,4.0594,4.0597,4.0588,4.0601,4.0591,4.0605,4.0599,4.0631,4.0624,4.063,4.0628,4.0653,4.0651,4.0735,4.0745,4.0667,4.0667,4.0668,0,4.0585,4.0602,4.0598,4.0605,4.0606,4.0618,4.0624,4.061,4.0617,4.0621,4.0634,4.0645,4.0654,4.0677,4.0672,4.0682,4.0675,4.0704,4.0677,4.068,4.0676,4.0675,4.0677,4.071,4.071,4.0711,4.0712,0,4.0653,4.0647,4.0656,4.0663,4.0671,4.0676,4.068,4.0688,4.0673,4.0683,4.0696,4.0702,4.0716,4.0728,4.0737,4.0737,4.0723,4.0721,4.0727,4.0731,4.0734,4.0733,4.0645,4.0719,4.0718,4.0717,4.0717,4.0717,4.0704,4.0717,4.0716,4.0727,4.0729,4.0733,4.0745,4.074,4.0751,4.076,4.0751,4.0767,4.0769,4.0779,4.0782,4.0794,4.0783,4.0792,4.0794,4.0796,4.08,4.0732,4.0796,4.0796,4.0796,4.0796,4.0795,0,4.077,4.0768,4.0779,4.0784,4.0793,4.0778,4.0782,4.079,4.0804,4.0807,4.0815,4.0831,4.0843,4.0839,4.085,4.0861,4.0855,4.0864,4.0863,4.0864,4.081,4.0803,4.0869,4.0869,4.0869,4.0869,4.0869,4.0869,4.0806,4.0827,4.0821,4.0844,4.0843,4.0857,4.0861,4.0865,4.0867,4.0885,4.0894,4.0891,4.0892,4.0902,4.0913,4.0911,4.0916,4.0929,4.0925,4.0875,4.0867,4.086,4.0854,4.093,4.093,4.0978,4.0978,4.0978]}]]